| time (UTC) | temp F | wind direction | speed MPH | gust MPH | rain 1hr in | rain 24hr in | rain mn in | humidity % | barometer mb |
| 20260504050003 | 67 | 73 | 0.0 | 8.0 | 0.00 | 0.00 | 0.00 | 20 | 1017.9 |
| 20260504045403 | 68 | 238 | 2.0 | 9.0 | 0.00 | 0.00 | 0.00 | 20 | 1017.9 |
| 20260504044504 | 68 | 245 | 2.0 | 9.0 | 0.00 | 0.00 | 0.00 | 18 | 1017.9 |
| 20260504043624 | 68 | 242 | 3.0 | 10.0 | 0.00 | 0.00 | 0.00 | 18 | 1017.9 |
| 20260504042703 | 68 | 234 | 2.0 | 8.0 | 0.00 | 0.00 | 0.00 | 18 | 1017.9 |
| 20260504041803 | 67 | 228 | 0.0 | 4.0 | 0.00 | 0.00 | 0.00 | 18 | 1017.9 |
| 20260504040903 | 68 | 233 | 1.0 | 7.0 | 0.00 | 0.00 | 0.00 | 18 | 1017.9 |
| 20260504040003 | 68 | 253 | 3.0 | 13.0 | 0.00 | 0.00 | 0.00 | 18 | 1017.9 |
| 20260504035403 | 68 | 252 | 3.0 | 13.0 | 0.00 | 0.00 | 0.00 | 18 | 1017.9 |
| 20260504034524 | 68 | 227 | 3.0 | 10.0 | 0.00 | 0.00 | 0.00 | 17 | 1017.9 |
| 20260504033624 | 69 | 219 | 3.0 | 9.0 | 0.00 | 0.00 | 0.00 | 17 | 1017.9 |
| 20260504032703 | 69 | 208 | 4.0 | 11.0 | 0.00 | 0.00 | 0.00 | 17 | 1017.9 |
| 20260504031803 | 69 | 200 | 4.0 | 11.0 | 0.00 | 0.00 | 0.00 | 17 | 1017.9 |
| 20260504030903 | 69 | 201 | 4.0 | 11.0 | 0.00 | 0.00 | 0.00 | 17 | 1017.9 |
| 20260504030003 | 68 | 247 | 0.0 | 5.0 | 0.00 | 0.00 | 0.00 | 16 | 1017.9 |
| 20260504025424 | 68 | 223 | 1.0 | 5.0 | 0.00 | 0.00 | 0.00 | 16 | 1017.9 |
| 20260504024503 | 68 | 80 | 0.0 | 3.0 | 0.00 | 0.00 | 0.00 | 16 | 1017.9 |
| 20260504023603 | 68 | 66 | 1.0 | 4.0 | 0.00 | 0.00 | 0.00 | 15 | 1017.9 |
| 20260504022703 | 68 | 49 | 0.0 | 4.0 | 0.00 | 0.00 | 0.00 | 15 | 1017.9 |
| 20260504021803 | 69 | 0 | 0.0 | 0.0 | 0.00 | 0.00 | 0.00 | 15 | 1017.9 |
| 20260504020903 | 70 | 0 | 0.0 | 0.0 | 0.00 | 0.00 | 0.00 | 16 | 1017.9 |
| 20260504020003 | 72 | 0 | 0.0 | 0.0 | 0.00 | 0.00 | 0.00 | 13 | 1017.9 |
| 20260504015424 | 73 | 0 | 0.0 | 0.0 | 0.00 | 0.00 | 0.00 | 13 | 1017.9 |
| 20260504014503 | 73 | 28 | 0.0 | 3.0 | 0.00 | 0.00 | 0.00 | 12 | 1017.9 |
| 20260504013624 | 74 | 17 | 0.0 | 4.0 | 0.00 | 0.00 | 0.00 | 12 | 1017.9 |
| 20260504012703 | 75 | 9 | 0.0 | 4.0 | 0.00 | 0.00 | 0.00 | 12 | 1017.9 |
| 20260504011803 | 75 | 310 | 0.0 | 7.0 | 0.00 | 0.00 | 0.00 | 11 | 1017.9 |
| 20260504010903 | 76 | 0 | 0.0 | 0.0 | 0.00 | 0.00 | 0.00 | 11 | 1017.9 |
| 20260504010024 | 76 | 296 | 0.0 | 8.0 | 0.00 | 0.00 | 0.00 | 11 | 1017.9 |
| 20260504005403 | 76 | 311 | 1.0 | 5.0 | 0.00 | 0.00 | 0.00 | 11 | 1017.9 |
| 20260504004524 | 76 | 22 | 1.0 | 7.0 | 0.00 | 0.00 | 0.00 | 10 | 1017.9 |
| 20260504003603 | 77 | 30 | 2.0 | 12.0 | 0.00 | 0.00 | 0.00 | 11 | 1017.9 |
| 20260504002703 | 78 | 194 | 2.0 | 7.0 | 0.00 | 0.00 | 0.00 | 10 | 1017.9 |
| 20260504001803 | 78 | 193 | 2.0 | 9.0 | 0.00 | 0.00 | 0.00 | 10 | 1017.9 |
| 20260504000903 | 78 | 193 | 2.0 | 9.0 | 0.00 | 0.00 | 0.00 | 9 | 1017.9 |
| 20260504000003 | 79 | 288 | 1.0 | 13.0 | 0.00 | 0.00 | 0.00 | 8 | 1017.9 |
| 20260503235424 | 80 | 309 | 2.0 | 13.0 | 0.00 | 0.00 | 0.00 | 9 | 1017.9 |
| 20260503234503 | 80 | 295 | 1.0 | 10.0 | 0.00 | 0.00 | 0.00 | 9 | 1017.9 |
| 20260503233603 | 80 | 247 | 1.0 | 10.0 | 0.00 | 0.00 | 0.00 | 9 | 1017.9 |
| 20260503232703 | 80 | 332 | 1.0 | 11.0 | 0.00 | 0.00 | 0.00 | 9 | 1017.9 |
| 20260503231824 | 79 | 343 | 1.0 | 7.0 | 0.00 | 0.00 | 0.00 | 9 | 1017.9 |
| 20260503230903 | 77 | 355 | 1.0 | 10.0 | 0.00 | 0.00 | 0.00 | 10 | 1017.9 |
| 20260503230003 | 77 | 306 | 0.0 | 8.0 | 0.00 | 0.00 | 0.00 | 10 | 1017.9 |
| 20260503225403 | 77 | 232 | 1.0 | 11.0 | 0.00 | 0.00 | 0.00 | 9 | 1017.9 |
| 20260503224524 | 78 | 241 | 1.0 | 11.0 | 0.00 | 0.00 | 0.00 | 9 | 1017.9 |
| 20260503223603 | 78 | 199 | 1.0 | 12.0 | 0.00 | 0.00 | 0.00 | 9 | 1017.9 |
| 20260503222703 | 79 | 27 | 0.0 | 5.0 | 0.00 | 0.00 | 0.00 | 9 | 1017.9 |
| 20260503221824 | 80 | 234 | 2.0 | 10.0 | 0.00 | 0.00 | 0.00 | 9 | 1017.9 |
| 20260503220903 | 81 | 285 | 1.0 | 6.0 | 0.00 | 0.00 | 0.00 | 8 | 1017.9 |
| 20260503220003 | 81 | 302 | 3.0 | 18.0 | 0.00 | 0.00 | 0.00 | 8 | 1017.9 |
| 20260503215403 | 81 | 306 | 1.0 | 12.0 | 0.00 | 0.00 | 0.00 | 8 | 1017.9 |
| 20260503214503 | 81 | 344 | 1.0 | 9.0 | 0.00 | 0.00 | 0.00 | 8 | 1017.9 |
| 20260503213603 | 80 | 345 | 2.0 | 10.0 | 0.00 | 0.00 | 0.00 | 8 | 1017.9 |
| 20260503212703 | 80 | 267 | 2.0 | 11.0 | 0.00 | 0.00 | 0.00 | 8 | 1017.9 |
| 20260503211824 | 80 | 286 | 4.0 | 16.0 | 0.00 | 0.00 | 0.00 | 8 | 1017.9 |
| 20260503210903 | 79 | 215 | 3.0 | 12.0 | 0.00 | 0.00 | 0.00 | 9 | 1017.9 |
| 20260503210003 | 79 | 276 | 4.0 | 12.0 | 0.00 | 0.00 | 0.00 | 8 | 1017.9 |
| 20260503205403 | 79 | 275 | 3.0 | 19.0 | 0.00 | 0.00 | 0.00 | 9 | 1017.9 |
| 20260503204524 | 78 | 59 | 2.0 | 7.0 | 0.00 | 0.00 | 0.00 | 9 | 1017.9 |
| 20260503203624 | 77 | 82 | 5.0 | 11.0 | 0.00 | 0.00 | 0.00 | 11 | 1017.9 |
| 20260503202703 | 75 | 182 | 3.0 | 11.0 | 0.00 | 0.00 | 0.00 | 16 | 1017.9 |
| 20260503201803 | 75 | 74 | 1.0 | 7.0 | 0.00 | 0.00 | 0.00 | 16 | 1017.9 |
| 20260503200903 | 74 | 69 | 2.0 | 9.0 | 0.00 | 0.00 | 0.00 | 17 | 1017.9 |
| 20260503200003 | 73 | 59 | 1.0 | 5.0 | 0.00 | 0.00 | 0.00 | 18 | 1017.9 |
| 20260503195403 | 73 | 59 | 2.0 | 6.0 | 0.00 | 0.00 | 0.00 | 18 | 1017.9 |
| 20260503194503 | 72 | 66 | 3.0 | 10.0 | 0.00 | 0.00 | 0.00 | 19 | 1017.9 |
| 20260503193603 | 72 | 77 | 1.0 | 7.0 | 0.00 | 0.00 | 0.00 | 19 | 1017.9 |
| 20260503192703 | 73 | 80 | 3.0 | 9.0 | 0.00 | 0.00 | 0.00 | 18 | 1017.9 |
| 20260503191803 | 74 | 62 | 3.0 | 10.0 | 0.00 | 0.00 | 0.00 | 18 | 1017.9 |
| 20260503190903 | 75 | 56 | 3.0 | 11.0 | 0.00 | 0.00 | 0.00 | 17 | 1017.9 |
| 20260503190003 | 76 | 21 | 3.0 | 8.0 | 0.00 | 0.00 | 0.00 | 16 | 1017.9 |
| 20260503185403 | 76 | 13 | 4.0 | 10.0 | 0.00 | 0.00 | 0.00 | 16 | 1017.9 |
| 20260503184524 | 76 | 6 | 4.0 | 10.0 | 0.00 | 0.00 | 0.00 | 17 | 1017.9 |
| 20260503183624 | 75 | 8 | 4.0 | 10.0 | 0.00 | 0.00 | 0.00 | 16 | 1017.9 |
| 20260503182703 | 74 | 1 | 3.0 | 9.0 | 0.00 | 0.00 | 0.00 | 16 | 1017.9 |
| 20260503181803 | 73 | 44 | 4.0 | 9.0 | 0.00 | 0.00 | 0.00 | 17 | 1017.9 |
| 20260503180903 | 73 | 33 | 4.0 | 11.0 | 0.00 | 0.00 | 0.00 | 17 | 1017.9 |
| 20260503180003 | 73 | 52 | 4.0 | 8.0 | 0.00 | 0.00 | 0.00 | 17 | 1017.9 |
| 20260503175403 | 73 | 19 | 2.0 | 6.0 | 0.00 | 0.00 | 0.00 | 17 | 1017.9 |
| 20260503174524 | 73 | 3 | 3.0 | 9.0 | 0.00 | 0.00 | 0.00 | 18 | 1017.9 |
| 20260503173624 | 72 | 11 | 3.0 | 9.0 | 0.00 | 0.00 | 0.00 | 19 | 1017.9 |
| 20260503172703 | 72 | 53 | 4.0 | 9.0 | 0.00 | 0.00 | 0.00 | 20 | 1017.9 |
| 20260503171824 | 71 | 64 | 2.0 | 6.0 | 0.00 | 0.00 | 0.00 | 21 | 1017.9 |
| 20260503170903 | 71 | 70 | 3.0 | 8.0 | 0.00 | 0.00 | 0.00 | 21 | 1017.9 |
| 20260503150903 | 59 | 65 | 2.0 | 6.0 | 0.00 | 0.00 | 0.00 | 32 | 1017.9 |